Regional Weather Roundup
Issued by NWS Bismarck, ND

Home | Current Version | Previous Version | Text Only | Print | Product List | Glossary On
Versions: 1 2 3 4 5 6 7 8 9 10 11 12 13 14 15 16 17 18 19 20 21 22 23 24 25 26 27 28 29 30 31 32 33 34 35 36 37 38 39 40 41 42 43 44 45 46 47 48 49 50
248
ASUS43 KBIS 222002
RWRBIS

NWR BROADCAST TEXT
NATIONAL WEATHER SERVICE BISMARCK ND
300 PM CDT WED MAR 22 2017

NOTE: "FAIR" INDICATES FEW OR NO CLOUDS BELOW 12,000 FEET WITH NO
SIGNIFICANT WEATHER AND/OR OBSTRUCTIONS TO VISIBILITY.


CITY           SKY/WX    TMP DP  RH WIND       PRES   REMARKS
WILLISTON      FAIR      46  31  55 S7        29.83F
MINOT          CLOUDY    38  28  67 SE15G29   29.94F
MINOT AFB      CLOUDY    36  28  72 S20       29.94F
BISMARCK       CLOUDY    47  28  47 S24G32    29.96F
DICKINSON      FAIR      50  33  52 S18       29.81F
GARRISON         N/A     37  29  72 S18       29.91F
HETTINGER ARPT FAIR      52  35  52 S16       29.84F
JAMESTOWN      CLOUDY    31  23  72 SE25G35   30.07F WCI  17
HAZEN          CLOUDY    43  30  61 S18G28    29.93F
LINTON           N/A     43  32  65 SE24G32   29.99F
MANDAN         CLOUDY    43  28  56 S25G31    29.94F
RUGBY            N/A     32  27  80 SE17G25   30.01F
STANLEY        CLOUDY    37  32  81 S20       29.90F
TIOGA          CLOUDY    36  34  93 SE18      29.86F
$$

CITY           SKY/WX    TMP DP  RH WIND       PRES   REMARKS
GRAND FORKS    CLOUDY    32   8  36 S24G33    30.25F WCI  19
GRAND FORKS AF FLURRIES  30  15  53 S24G35    30.23F WCI  16
DEVILS LAKE    CLOUDY    27  22  81 SE25G33   30.10F WCI  12
FARGO          CLOUDY    32  14  47 SE24G33   30.26F WCI  19
GRAFTON        CLOUDY    30  16  55 SE29G39   30.26F WCI  15
GWINNER        CLOUDY    30  23  74 MISG      30.20F
ROLLA          CLOUDY    27  23  86 S28G33    30.03F WCI  11
$$

CITY           SKY/WX    TMP DP  RH WIND       PRES   REMARKS
ABERDEEN       CLOUDY    34  24  67 SE26G33   30.13F
MOBRIDGE       PTSUNNY   45  30  55 S24G35    29.94F
BUFFALO          N/A     53  37  54 S8        29.75F
RAPID CITY     FAIR      64  39  39 S21       29.76F
GLASGOW        FAIR      51  36  56 SE6       29.77S
SIDNEY         FAIR     N/A N/A N/A SE6       29.81F
WOLF POINT     FAIR      52  36  54 CALM      29.78F
GLENDIVE       FAIR      50  35  56 S10       29.81F
MILES CITY     FAIR      52  38  58 W5        29.79F
BAKER          FAIR      51  36  56 SW7       29.81F
$$

CITY           SKY/WX    TMP DP  RH WIND       PRES   REMARKS
BILLINGS       FAIR      60  40  47 NE3       29.79F
GREAT FALLS    FAIR      61  24  24 W20G29    29.75F
ESTEVAN        CLOUDY    34  27  75 SE15      29.87F
$$





USA.gov is the U.S. government's official web portal to all federal, state and local government web resources and services.